�N����,����,�~����,�C��,���x,�C��,����,���ϕ���,�ő�u�ԕ���,�ő厞����,���˗�,�I�_���x,�n�����x,�ő啗���N��,DTYPE
"19/04/19","00:10",0.0,11.5,74.2,1007.6,320.1,1.7,2.6,328.6,0.00,7.1,14.0,"00:00:40",1
"19/04/19","00:20",0.0,11.1,75.6,1007.8,323.6,1.2,2.5,317.4,0.00,7.0,13.9,"00:18:24",1
"19/04/19","00:30",0.0,11.0,77.2,1007.6,321.3,1.6,2.4,331.4,0.00,7.2,13.9,"00:24:00",1
"19/04/19","00:40",0.0,10.8,78.8,1006.9,288.0,1.1,1.4,277.1,0.00,7.3,13.9,"00:30:16",1
"19/04/19","00:50",0.0,11.0,78.9,1007.4,325.4,2.0,2.7,322.2,0.00,7.5,13.9,"00:44:24",1
"19/04/19","01:00",0.0,11.0,79.8,1007.1,324.3,1.5,2.2,307.3,0.00,7.7,13.8,"00:56:08",1
"19/04/19","01:10",0.0,10.8,79.4,1007.4,313.1,1.0,2.0,302.7,0.00,7.4,13.7,"01:00:02",1
"19/04/19","01:20",0.0,10.4,80.6,1007.4,315.1,1.6,2.2,308.5,0.00,7.3,13.6,"01:10:08",1
"19/04/19","01:30",0.0,10.5,82.5,1007.6,294.9,1.5,2.1,302.7,0.00,7.7,13.5,"01:27:28",1
"19/04/19","01:40",0.0,10.8,82.7,1007.6,315.2,1.3,1.9,313.4,0.00,8.0,13.3,"01:38:48",1
"19/04/19","01:50",0.0,10.9,82.9,1007.8,318.9,1.6,2.2,324.1,0.00,8.2,13.5,"01:46:24",1
"19/04/19","02:00",0.0,11.1,83.1,1007.8,311.0,1.3,2.2,331.4,0.00,8.4,13.6,"01:57:04",1
"19/04/19","02:10",0.0,11.1,82.9,1007.4,311.5,1.2,2.0,318.8,0.00,8.3,13.4,"02:07:28",1
"19/04/19","02:20",0.0,11.2,83.4,1007.4,304.8,1.0,1.9,317.6,0.00,8.5,13.4,"02:12:56",1
"19/04/19","02:30",0.0,11.3,84.1,1007.4,293.4,1.5,1.8,319.4,0.00,8.8,13.5,"02:28:56",1
"19/04/19","02:40",0.0,11.5,84.6,1007.1,311.8,1.3,1.9,321.4,0.00,9.0,13.4,"02:39:36",1
"19/04/19","02:50",0.0,11.7,83.8,1007.4,319.7,1.3,1.9,328.2,0.00,9.1,13.3,"02:46:48",1
"19/04/19","03:00",0.0,11.6,84.1,1007.6,310.7,1.5,2.5,317.9,0.00,9.0,13.5,"02:55:28",1
"19/04/19","03:10",0.0,11.6,85.1,1008.1,314.3,1.5,2.0,314.0,0.00,9.2,13.4,"03:08:34",1
"19/04/19","03:20",0.0,11.7,85.2,1007.6,323.7,1.3,2.0,316.4,0.00,9.3,13.2,"03:10:24",1
"19/04/19","03:30",0.0,11.8,85.1,1008.1,318.6,0.7,1.9,326.9,0.00,9.4,13.4,"03:20:56",1
"19/04/19","03:40",0.0,11.9,85.4,1008.3,321.3,1.7,2.0,331.9,0.00,9.6,13.4,"03:38:08",1
"19/04/19","03:50",0.0,11.9,85.5,1007.8,323.2,1.3,1.7,344.9,0.00,9.6,13.4,"03:41:28",1
"19/04/19","04:00",0.0,12.1,85.8,1007.6,277.8,0.7,1.1,261.0,0.00,9.8,13.4,"03:52:00",1
"19/04/19","04:10",0.0,12.2,85.3,1007.8,333.3,0.8,2.9,350.1,0.00,9.8,13.3,"04:08:20",1
"19/04/19","04:20",0.0,12.4,85.2,1007.8,346.7,1.0,1.9,351.4,0.00,10.0,13.3,"04:16:48",1
"19/04/19","04:30",0.0,12.4,85.0,1007.8,286.2,1.1,1.3,302.2,0.00,10.0,13.5,"04:27:12",1
"19/04/19","04:40",0.0,12.5,85.0,1008.1,266.1,1.2,1.7,278.3,0.00,10.1,13.3,"04:35:12",1
"19/04/19","04:50",0.0,12.7,84.8,1007.8,330.5,1.2,2.0,300.4,0.00,10.3,13.3,"04:41:28",1
"19/04/19","05:00",0.0,12.8,84.7,1008.1,36.5,0.3,1.0,113.2,0.00,10.3,13.4,"04:52:16",1
"19/04/19","05:10",0.0,12.8,84.4,1008.1,287.7,1.0,2.1,337.5,0.00,10.3,13.3,"05:09:04",1
"19/04/19","05:20",0.0,12.6,84.6,1008.1,301.8,1.2,1.9,318.1,0.00,10.1,13.5,"05:19:12",1
"19/04/19","05:30",0.0,12.6,85.1,1008.1,296.5,1.2,1.6,316.2,0.00,10.2,13.2,"05:28:00",1
"19/04/19","05:40",0.0,12.6,84.8,1008.1,329.3,1.2,1.7,323.7,0.00,10.2,13.3,"05:38:24",1
"19/04/19","05:50",0.0,12.5,85.4,1008.6,278.5,0.8,1.2,296.9,0.00,10.2,13.3,"05:49:12",1
"19/04/19","06:00",0.0,12.4,86.1,1008.3,309.3,1.2,1.9,318.7,0.00,10.2,13.2,"05:59:04",1
"19/04/19","06:10",0.0,12.4,86.5,1008.6,313.2,1.2,1.6,320.3,0.00,10.3,13.3,"06:00:02",1
"19/04/19","06:20",0.0,12.4,86.7,1008.8,308.3,1.5,1.9,311.3,0.00,10.3,13.3,"06:16:16",1
"19/04/19","06:30",0.0,12.6,86.8,1008.8,313.3,1.1,2.0,336.3,0.00,10.5,13.4,"06:21:12",1
"19/04/19","06:40",0.0,12.7,86.8,1009.3,292.5,1.0,1.2,287.3,0.01,10.6,13.3,"06:33:52",1
"19/04/19","06:50",0.0,12.9,86.9,1009.0,292.0,1.0,1.2,316.8,0.02,10.8,13.4,"06:45:52",1
"19/04/19","07:00",0.0,13.2,86.7,1008.8,303.8,1.3,1.8,297.1,0.04,11.1,13.1,"06:52:40",1
"19/04/19","07:10",0.0,14.0,86.2,1009.0,313.0,1.3,1.8,311.5,0.06,11.8,13.5,"07:02:08",1
"19/04/19","07:20",0.0,14.8,82.1,1009.5,318.9,1.1,1.6,318.0,0.07,11.8,13.5,"07:12:32",1
"19/04/19","07:30",0.0,15.1,79.5,1010.0,320.1,1.0,1.3,323.6,0.09,11.6,13.4,"07:24:16",1
"19/04/19","07:40",0.0,15.5,77.1,1009.5,335.6,0.2,0.9,341.2,0.10,11.5,13.4,"07:30:48",1
"19/04/19","07:50",0.0,15.8,75.4,1010.2,268.3,0.2,0.4,266.1,0.11,11.5,13.5,"07:45:20",1
"19/04/19","08:00",0.0,16.4,71.2,1010.0,280.9,0.3,0.8,262.7,0.13,11.2,13.8,"07:56:40",1
"19/04/19","08:10",0.0,16.6,71.0,1009.7,170.4,0.3,0.9,116.1,0.17,11.4,13.8,"08:08:48",1
"19/04/19","08:20",0.0,16.8,71.1,1009.7,78.8,0.3,0.8,92.7,0.17,11.6,13.8,"08:10:56",1
"19/04/19","08:30",0.0,17.2,70.1,1009.5,297.3,0.5,1.6,117.9,0.17,11.7,14.0,"08:29:12",1
"19/04/19","08:40",0.0,17.7,69.3,1009.5,179.4,0.6,1.7,152.3,0.26,12.1,14.2,"08:34:32",1
"19/04/19","08:50",0.0,17.9,69.0,1009.0,137.9,0.8,2.4,188.5,0.28,12.2,14.4,"08:48:24",1
"19/04/19","09:00",0.0,18.0,70.1,1009.3,136.7,1.2,2.0,128.8,0.25,12.5,14.4,"08:54:16",1
"19/04/19","09:10",0.0,18.8,68.2,1009.3,183.3,1.0,2.5,167.0,0.32,12.9,14.5,"09:06:44",1
"19/04/19","09:20",0.0,19.0,66.3,1009.0,161.3,1.2,2.4,168.0,0.31,12.6,14.7,"09:14:48",1
"19/04/19","09:30",0.0,19.2,66.2,1008.6,162.1,1.8,3.9,114.1,0.34,12.8,14.9,"09:29:52",1
"19/04/19","09:40",0.0,19.5,65.5,1008.8,171.3,2.1,3.4,131.4,0.37,12.9,15.2,"09:39:36",1
"19/04/19","09:50",0.0,20.1,65.9,1008.6,143.8,1.6,3.4,139.8,0.38,13.6,15.5,"09:49:12",1
"19/04/19","10:00",0.0,19.7,63.9,1008.6,155.8,2.0,3.9,165.5,0.32,12.7,15.4,"09:56:00",1
"19/04/19","10:10",0.0,20.5,63.0,1008.8,114.9,1.5,3.4,105.7,0.28,13.3,15.4,"10:03:52",1
"19/04/19","10:20",0.0,20.4,61.0,1008.6,131.9,1.1,2.5,130.6,0.26,12.7,15.8,"10:16:24",1
"19/04/19","10:30",0.0,20.7,59.0,1009.0,312.9,1.2,3.2,231.0,0.27,12.4,16.0,"10:26:40",1
"19/04/19","10:40",0.0,20.5,58.3,1008.8,270.0,2.2,4.5,254.7,0.20,12.1,16.1,"10:38:32",1
"19/04/19","10:50",0.0,20.6,59.0,1008.6,268.5,1.8,4.1,304.5,0.16,12.4,16.1,"10:43:52",1
"19/04/19","11:00",0.0,20.9,59.3,1008.6,329.7,2.1,4.3,323.0,0.20,12.7,16.2,"10:51:36",1
"19/04/19","11:10",0.0,20.9,58.4,1008.6,325.2,1.7,3.5,320.6,0.23,12.5,16.2,"11:00:16",1
"19/04/19","11:20",0.0,21.2,57.4,1008.3,326.4,1.6,4.1,335.4,0.24,12.5,16.4,"11:10:56",1
"19/04/19","11:30",0.0,21.1,59.1,1008.3,330.7,2.3,4.3,341.4,0.21,12.8,16.4,"11:23:20",1
"19/04/19","11:40",0.0,21.0,57.8,1007.8,338.1,2.5,4.5,341.8,0.24,12.4,16.3,"11:35:44",1
"19/04/19","11:50",0.0,21.2,57.7,1007.8,334.8,1.8,4.4,324.8,0.30,12.6,16.4,"11:46:16",1
"19/04/19","12:00",0.0,21.0,58.2,1007.8,314.2,1.3,3.2,317.9,0.18,12.5,16.5,"11:54:16",1
"19/04/19","12:10",0.0,20.2,59.8,1007.8,2.3,2.1,4.4,358.0,0.14,12.2,16.7,"12:02:24",1
"19/04/19","12:20",0.0,20.4,61.6,1007.6,344.0,2.2,7.0,345.1,0.13,12.8,16.6,"12:16:16",1
"19/04/19","12:30",0.0,20.4,60.0,1007.8,356.0,2.5,5.1,349.8,0.14,12.4,16.5,"12:20:16",1
"19/04/19","12:40",0.0,20.3,60.3,1007.8,353.0,2.5,6.3,340.1,0.15,12.4,16.5,"12:37:12",1
"19/04/19","12:50",0.0,20.2,60.9,1007.8,343.1,2.8,4.4,347.7,0.14,12.5,16.5,"12:41:12",1
"19/04/19","13:00",0.0,19.9,61.4,1007.8,334.0,2.8,4.4,298.9,0.10,12.3,16.7,"12:59:12",1
"19/04/19","13:10",0.0,20.2,60.8,1007.8,350.9,3.0,5.4,327.1,0.09,12.4,16.6,"13:06:40",1
"19/04/19","13:20",0.0,19.0,66.3,1008.1,351.2,3.4,6.2,325.3,0.10,12.6,16.5,"13:14:16",1
"19/04/19","13:30",0.0,18.9,68.4,1007.8,348.5,3.4,7.1,328.6,0.11,13.0,16.5,"13:25:28",1
"19/04/19","13:40",0.0,18.6,69.5,1008.3,353.2,3.1,6.0,340.3,0.14,13.0,16.4,"13:35:04",1
"19/04/19","13:50",0.0,18.2,69.8,1008.3,348.0,3.4,6.2,310.5,0.10,12.6,16.6,"13:41:28",1
"19/04/19","14:00",0.0,17.8,71.4,1008.6,352.3,3.5,7.8,332.5,0.09,12.6,16.4,"13:57:44",1
"19/04/19","14:10",0.0,18.0,71.2,1008.6,353.7,2.6,5.4,346.3,0.11,12.8,16.6,"14:09:04",1
"19/04/19","14:20",0.0,17.5,72.0,1008.3,356.3,3.0,5.6,337.8,0.11,12.4,16.4,"14:18:40",1
"19/04/19","14:30",0.0,17.3,72.4,1008.8,343.5,3.1,6.3,326.9,0.09,12.3,16.4,"14:29:36",1
"19/04/19","14:40",0.0,17.1,72.6,1008.3,349.5,3.0,5.1,340.3,0.08,12.2,16.2,"14:31:20",1
"19/04/19","14:50",0.0,17.1,71.9,1008.6,344.5,4.1,9.6,337.3,0.17,12.0,16.2,"14:42:24",1
"19/04/19","15:00",0.0,17.1,72.1,1008.3,344.1,4.0,8.1,345.5,0.14,12.1,16.3,"14:51:12",1
"19/04/19","15:10",0.0,16.8,71.2,1008.6,351.7,4.1,7.0,333.9,0.13,11.6,16.3,"15:01:36",1
"19/04/19","15:20",0.0,16.6,71.3,1008.3,346.6,4.7,9.4,343.4,0.19,11.4,16.2,"15:16:32",1
"19/04/19","15:30",0.0,16.5,71.9,1008.6,343.0,4.5,8.2,348.0,0.14,11.5,16.0,"15:25:36",1
"19/04/19","15:40",0.0,16.3,72.0,1008.6,342.2,4.5,7.4,331.5,0.12,11.3,16.2,"15:34:00",1
"19/04/19","15:50",0.0,16.2,71.7,1008.8,338.7,3.9,8.6,337.8,0.13,11.1,16.1,"15:42:40",1
"19/04/19","16:00",0.0,15.9,70.9,1008.8,346.8,3.5,6.0,337.0,0.07,10.7,16.1,"15:52:24",1
"19/04/19","16:10",0.0,15.6,71.7,1009.3,339.6,4.4,9.3,342.6,0.09,10.6,16.0,"16:01:44",1
"19/04/19","16:20",0.0,15.5,72.5,1009.3,340.3,4.0,6.5,349.5,0.10,10.6,16.0,"16:12:00",1
"19/04/19","16:30",0.0,15.1,72.9,1009.3,350.0,4.2,7.7,9.4,0.14,10.3,15.9,"16:24:40",1
"19/04/19","16:40",0.0,14.9,72.4,1009.0,341.3,4.2,7.9,345.6,0.08,10.0,15.9,"16:39:38",1
"19/04/19","16:50",0.0,14.6,73.3,1009.5,349.4,3.7,10.4,323.2,0.08,9.9,15.8,"16:48:32",1
"19/04/19","17:00",0.0,14.5,73.8,1009.0,353.3,3.7,7.2,344.1,0.11,9.9,15.7,"16:57:04",1
"19/04/19","17:10",0.0,14.1,73.7,1009.0,353.3,4.0,7.9,342.3,0.07,9.5,15.8,"17:08:44",1
"19/04/19","17:20",0.0,14.0,74.2,1009.3,348.9,3.9,8.3,339.4,0.08,9.5,15.7,"17:12:00",1
"19/04/19","17:30",0.0,13.8,74.7,1009.0,345.5,4.4,8.9,335.3,0.06,9.4,15.7,"17:29:54",1
"19/04/19","17:40",0.0,13.7,75.2,1009.3,344.8,4.0,9.4,345.2,0.06,9.4,15.5,"17:36:16",1
"19/04/19","17:50",0.0,13.4,76.0,1009.3,344.5,4.9,11.1,339.4,0.04,9.3,15.6,"17:44:56",1
"19/04/19","18:00",0.0,13.3,76.4,1009.3,344.4,4.2,8.3,332.9,0.03,9.3,15.5,"17:53:44",1
"19/04/19","18:10",0.0,13.2,76.9,1009.3,343.8,4.1,8.5,339.2,0.03,9.3,15.4,"18:09:04",1
"19/04/19","18:20",0.0,13.0,77.1,1009.0,344.1,4.4,8.7,343.3,0.02,9.1,15.2,"18:19:12",1
"19/04/19","18:30",0.0,12.9,77.7,1008.8,337.6,4.0,8.0,344.5,0.00,9.1,15.2,"18:23:28",1
"19/04/19","18:40",0.0,12.7,78.4,1009.0,334.7,4.1,7.4,321.6,0.00,9.1,15.1,"18:33:04",1
"19/04/19","18:50",0.0,12.6,78.7,1009.3,328.0,3.7,8.5,307.9,0.00,9.0,14.9,"18:45:04",1
"19/04/19","19:00",0.0,12.4,78.7,1009.3,340.0,4.1,9.3,326.8,0.00,8.8,14.7,"18:52:40",1
"19/04/19","19:10",0.0,12.3,78.4,1009.5,349.5,2.8,4.9,337.7,0.00,8.7,14.8,"19:04:56",1
"19/04/19","19:20",0.0,12.1,78.1,1009.5,354.0,2.7,4.8,350.7,0.00,8.4,14.7,"19:12:22",1
"19/04/19","19:30",0.0,12.1,78.2,1009.5,351.8,2.2,4.4,339.4,0.00,8.5,14.6,"19:20:56",1
"19/04/19","19:40",0.0,12.1,77.6,1010.0,3.8,2.0,4.2,354.7,0.00,8.3,14.7,"19:39:14",1
"19/04/19","19:50",0.0,11.9,77.4,1009.5,2.2,2.3,4.3,13.4,0.00,8.1,14.6,"19:46:30",1
"19/04/19","20:00",0.0,11.9,77.2,1010.0,0.6,2.8,6.0,355.9,0.00,8.1,14.4,"19:55:46",1
"19/04/19","20:10",0.0,11.8,76.9,1010.0,348.1,3.0,4.8,349.4,0.00,7.9,14.4,"20:05:38",1
"19/04/19","20:20",0.0,11.8,77.0,1009.7,343.3,2.8,4.7,358.6,0.00,7.9,14.2,"20:18:28",1
"19/04/19","20:30",0.0,11.7,76.4,1010.0,343.7,2.7,5.5,339.2,0.00,7.7,14.0,"20:20:32",1
"19/04/19","20:40",0.0,11.6,75.8,1010.2,345.1,2.8,5.4,334.4,0.00,7.5,14.1,"20:34:56",1
"19/04/19","20:50",0.0,11.6,75.6,1009.7,355.0,2.1,3.9,27.6,0.00,7.5,14.0,"20:44:30",1
"19/04/19","21:00",0.0,11.6,75.4,1010.0,339.5,2.2,3.9,325.9,0.00,7.4,14.1,"20:50:24",1
"19/04/19","21:10",0.0,11.4,75.6,1010.2,330.2,2.2,3.7,316.6,0.00,7.3,13.9,"21:01:36",1
"19/04/19","21:20",0.0,11.5,76.1,1010.0,317.4,2.2,3.5,333.4,0.00,7.5,13.8,"21:16:48",1
"19/04/19","21:30",0.0,11.4,76.2,1010.0,325.3,2.3,3.5,338.3,0.00,7.4,13.8,"21:22:56",1
"19/04/19","21:40",0.0,11.4,75.6,1010.4,328.2,2.7,4.8,332.1,0.00,7.3,13.7,"21:34:42",1
"19/04/19","21:50",0.0,11.4,74.3,1010.4,320.7,2.3,6.0,340.4,0.00,7.0,13.7,"21:40:32",1
"19/04/19","22:00",0.0,11.2,74.6,1010.0,335.1,2.3,5.0,346.6,0.00,6.9,13.7,"21:59:22",1
"19/04/19","22:10",0.0,11.2,74.0,1010.2,332.1,2.8,5.0,335.2,0.00,6.8,13.6,"22:02:24",1
"19/04/19","22:20",0.0,11.1,74.3,1010.4,349.0,2.0,3.3,321.3,0.00,6.7,13.4,"22:17:16",1
"19/04/19","22:30",0.0,11.0,74.4,1010.2,352.9,1.5,3.1,17.4,0.00,6.7,13.6,"22:21:44",1
"19/04/19","22:40",0.0,10.8,74.9,1010.7,350.6,2.0,3.6,355.7,0.00,6.6,13.4,"22:31:38",1
"19/04/19","22:50",0.0,10.8,75.4,1010.4,348.3,1.7,3.5,338.7,0.00,6.7,13.5,"22:44:42",1
"19/04/19","23:00",0.0,10.7,75.5,1010.4,352.8,1.5,2.6,358.7,0.00,6.6,13.3,"22:54:40",1
"19/04/19","23:10",0.0,10.5,75.4,1010.7,341.4,2.1,3.5,357.5,0.00,6.4,13.4,"23:04:10",1
"19/04/19","23:20",0.0,10.3,77.0,1010.7,338.4,2.1,4.3,345.2,0.00,6.5,13.3,"23:18:00",1
"19/04/19","23:30",0.0,10.2,76.6,1010.9,338.3,2.0,3.9,339.1,0.00,6.3,13.2,"23:26:08",1
"19/04/19","23:40",0.0,9.9,77.3,1010.4,330.4,2.0,3.2,335.8,0.00,6.2,13.1,"23:30:24",1
"19/04/19","23:50",0.0,9.6,78.3,1010.2,293.2,1.5,2.4,319.4,0.00,6.1,13.0,"23:40:16",1
"19/04/19","24:00",0.0,9.1,79.8,1010.4,301.1,1.6,2.6,313.3,0.00,5.8,12.8,"23:55:36",1
